AIC624 VOMM-VABB

Flight info

Callsign AIC624
Flight time 1h 38m
Altitude 38000
Route DOLKI2B DOLKI Q8 BEDOL MOLGO2A
Aircraft A21N/M-SDE3FGHIRWY/LB1

Departure

Time 2026-04-27 17:28
Airport Chennai International Airport (VOMM)

Arrival

Time 2026-04-27 19:07
Airport Chhatrapati Shivaji Maharaj International Airport (VABB)
Time Latitude Longitude Altitude Speed Heading
2026-04-27 16:57 12.98428 80.16534 48 ft 0 kts 160°
2026-04-27 17:12 12.98434 80.16532 49 ft 2 kts 160°
2026-04-27 17:13 12.98448 80.16527 48 ft 2 kts 160°
2026-04-27 17:13 12.98457 80.16524 48 ft 2 kts 161°
2026-04-27 17:13 12.98471 80.16516 48 ft 2 kts 136°
2026-04-27 17:13 12.98481 80.16503 48 ft 2 kts 116°
2026-04-27 17:14 12.98486 80.16487 48 ft 2 kts 95°
2026-04-27 17:14 12.98485 80.16472 48 ft 2 kts 75°
2026-04-27 17:14 12.98483 80.16466 48 ft 0 kts 68°
2026-04-27 17:14 12.98491 80.16489 48 ft 1 kts 69°
2026-04-27 17:15 12.98491 80.16490 48 ft 0 kts 69°
2026-04-27 17:19 12.98492 80.16492 48 ft 2 kts 69°
2026-04-27 17:19 12.98498 80.16509 48 ft 6 kts 69°
2026-04-27 17:19 12.98501 80.16515 48 ft 7 kts 69°
2026-04-27 17:20 12.98519 80.16564 48 ft 7 kts 68°
2026-04-27 17:20 12.98538 80.16613 47 ft 7 kts 69°
2026-04-27 17:20 12.98554 80.16657 48 ft 5 kts 69°
2026-04-27 17:20 12.98567 80.16691 48 ft 4 kts 69°
2026-04-27 17:21 12.98579 80.16722 48 ft 4 kts 69°
2026-04-27 17:21 12.98598 80.16757 48 ft 6 kts 46°
2026-04-27 17:21 12.98641 80.16761 48 ft 7 kts 341°
2026-04-27 17:21 12.98696 80.16740 48 ft 9 kts 342°
2026-04-27 17:22 12.98761 80.16756 47 ft 10 kts 51°
2026-04-27 17:22 12.98787 80.16819 48 ft 8 kts 69°
2026-04-27 17:22 12.98806 80.16871 49 ft 7 kts 68°
2026-04-27 17:22 12.98825 80.16920 48 ft 7 kts 69°
2026-04-27 17:23 12.98846 80.16974 48 ft 8 kts 69°
2026-04-27 17:23 12.98868 80.17032 48 ft 8 kts 69°
2026-04-27 17:23 12.98888 80.17085 49 ft 7 kts 68°
2026-04-27 17:23 12.98907 80.17134 49 ft 7 kts 68°
2026-04-27 17:24 12.98926 80.17182 50 ft 7 kts 67°
2026-04-27 17:24 12.98950 80.17234 49 ft 8 kts 63°
2026-04-27 17:24 12.98980 80.17295 48 ft 10 kts 65°
2026-04-27 17:24 12.99008 80.17368 48 ft 11 kts 69°
2026-04-27 17:25 12.99040 80.17450 47 ft 12 kts 68°
2026-04-27 17:25 12.99072 80.17536 47 ft 12 kts 69°
2026-04-27 17:25 12.99103 80.17615 48 ft 10 kts 69°
2026-04-27 17:25 12.99136 80.17680 49 ft 10 kts 39°
2026-04-27 17:26 12.99211 80.17683 48 ft 12 kts 342°
2026-04-27 17:26 12.99284 80.17640 45 ft 11 kts 296°
2026-04-27 17:26 12.99273 80.17577 44 ft 0 kts 248°
2026-04-27 17:27 12.99272 80.17574 44 ft 5 kts 248°
2026-04-27 17:27 12.99185 80.17345 45 ft 71 kts 247°
2026-04-27 17:27 12.98921 80.16642 45 ft 138 kts 248°
2026-04-27 17:28 12.98542 80.15565 292 ft 170 kts 249°
2026-04-27 17:28 12.98174 80.14408 994 ft 170 kts 252°
2026-04-27 17:28 12.99275 80.12607 2347 ft 179 kts 355°
2026-04-27 17:29 13.00374 80.12907 2747 ft 155 kts 26°
2026-04-27 17:29 13.01381 80.13273 2582 ft 158 kts 356°
2026-04-27 17:29 13.02505 80.13149 2680 ft 171 kts 349°
2026-04-27 17:29 13.03799 80.13004 3037 ft 189 kts 355°
2026-04-27 17:30 13.05284 80.13006 3461 ft 208 kts
2026-04-27 17:30 13.08456 80.13326 4307 ft 243 kts
2026-04-27 17:30 13.10211 80.13583 4729 ft 261 kts 10°
2026-04-27 17:31 13.12064 80.13863 5158 ft 277 kts 10°
2026-04-27 17:31 13.14040 80.14158 5718 ft 282 kts 10°
2026-04-27 17:31 13.16020 80.14447 5979 ft 282 kts 10°
2026-04-27 17:31 13.18003 80.14735 5990 ft 281 kts 10°
2026-04-27 17:32 13.19968 80.14923 5981 ft 283 kts 357°
2026-04-27 17:32 13.23486 80.12986 5997 ft 287 kts 320°
2026-04-27 17:32 13.24992 80.11633 5995 ft 287 kts 320°
2026-04-27 17:33 13.26515 80.10269 5994 ft 287 kts 320°
2026-04-27 17:33 13.28080 80.08891 5994 ft 287 kts 320°
2026-04-27 17:33 13.29588 80.07516 5935 ft 289 kts 317°
2026-04-27 17:33 13.31128 80.05977 6148 ft 295 kts 316°
2026-04-27 17:34 13.32696 80.04384 7022 ft 294 kts 316°
2026-04-27 17:34 13.34273 80.02778 7919 ft 294 kts 317°
2026-04-27 17:34 13.35870 80.01155 8736 ft 296 kts 317°
2026-04-27 17:34 13.37391 79.99614 9506 ft 297 kts 317°
2026-04-27 17:35 13.38959 79.98025 10264 ft 300 kts 317°
2026-04-27 17:35 13.40575 79.96389 10668 ft 316 kts 317°
2026-04-27 17:35 13.42334 79.94609 11286 ft 323 kts 317°
2026-04-27 17:35 13.43930 79.92990 12013 ft 324 kts 317°
2026-04-27 17:36 13.45513 79.91383 12704 ft 326 kts 317°
2026-04-27 17:36 13.47137 79.89735 13351 ft 329 kts 317°
2026-04-27 17:36 13.48775 79.88071 13979 ft 332 kts 317°
2026-04-27 17:36 13.50424 79.86398 14599 ft 335 kts 317°
2026-04-27 17:37 13.52078 79.84719 15205 ft 338 kts 317°
2026-04-27 17:37 13.53748 79.83023 15803 ft 342 kts 317°
2026-04-27 17:37 13.55443 79.81300 16396 ft 345 kts 317°
2026-04-27 17:37 13.57079 79.79507 16972 ft 349 kts 313°
2026-04-27 17:38 13.58651 79.77539 17555 ft 353 kts 310°
2026-04-27 17:38 13.60147 79.75556 18116 ft 356 kts 310°
2026-04-27 17:38 13.61670 79.73521 18672 ft 360 kts 310°
2026-04-27 17:38 13.63194 79.71482 19214 ft 363 kts 310°
2026-04-27 17:39 13.64739 79.69417 19749 ft 366 kts 310°
2026-04-27 17:39 13.66296 79.67337 20274 ft 369 kts 310°
2026-04-27 17:39 13.67872 79.65234 20792 ft 373 kts 310°
2026-04-27 17:39 13.69466 79.63106 21303 ft 376 kts 310°
2026-04-27 17:40 13.70932 79.61148 21761 ft 379 kts 310°
2026-04-27 17:40 13.72503 79.59051 22242 ft 382 kts 310°
2026-04-27 17:40 13.74141 79.56862 22729 ft 385 kts 310°
2026-04-27 17:40 13.75756 79.54706 23193 ft 388 kts 310°
2026-04-27 17:41 13.77431 79.52467 23661 ft 391 kts 310°
2026-04-27 17:41 13.79077 79.50268 24108 ft 394 kts 310°
2026-04-27 17:41 13.80762 79.48016 24559 ft 397 kts 310°
2026-04-27 17:41 13.82430 79.45785 24990 ft 400 kts 310°
2026-04-27 17:42 13.84124 79.43520 25415 ft 403 kts 310°
2026-04-27 17:42 13.85845 79.41217 25838 ft 406 kts 310°
2026-04-27 17:42 13.87573 79.38904 26250 ft 408 kts 310°
2026-04-27 17:42 13.89253 79.36656 26636 ft 411 kts 310°
2026-04-27 17:43 13.90586 79.34872 26934 ft 413 kts 310°
2026-04-27 17:43 13.92142 79.32787 27268 ft 416 kts 310°
2026-04-27 17:43 13.93727 79.30665 27599 ft 418 kts 310°
2026-04-27 17:43 13.95428 79.28385 27949 ft 421 kts 310°
2026-04-27 17:44 13.97200 79.26011 28319 ft 423 kts 310°
2026-04-27 17:44 13.98972 79.23635 28686 ft 425 kts 310°
2026-04-27 17:44 14.00582 79.21476 28999 ft 427 kts 310°
2026-04-27 17:44 14.02373 79.19073 29328 ft 429 kts 309°
2026-04-27 17:45 14.04180 79.16649 29660 ft 431 kts 309°
2026-04-27 17:45 14.05956 79.14264 29978 ft 433 kts 309°
2026-04-27 17:45 14.07773 79.11826 30294 ft 435 kts 309°
2026-04-27 17:45 14.09581 79.09397 30607 ft 437 kts 309°
2026-04-27 17:46 14.11307 79.07076 30902 ft 439 kts 309°
2026-04-27 17:46 14.13106 79.04659 31203 ft 440 kts 309°
2026-04-27 17:46 14.14977 79.02144 31509 ft 442 kts 309°
2026-04-27 17:46 14.16834 78.99647 31803 ft 444 kts 309°
2026-04-27 17:47 14.18723 78.97105 32095 ft 445 kts 309°
2026-04-27 17:47 14.22458 78.92076 32642 ft 448 kts 309°
2026-04-27 17:47 14.24337 78.89546 32915 ft 450 kts 309°
2026-04-27 17:48 14.26215 78.87015 33259 ft 449 kts 309°
2026-04-27 17:48 14.28100 78.84474 33618 ft 448 kts 309°
2026-04-27 17:48 14.29924 78.81928 33956 ft 447 kts 307°
2026-04-27 17:48 14.31662 78.79275 34280 ft 447 kts 305°
2026-04-27 17:49 14.33356 78.76626 34595 ft 446 kts 305°
2026-04-27 17:49 14.35041 78.73977 34906 ft 446 kts 305°
2026-04-27 17:49 14.36728 78.71323 35214 ft 445 kts 305°
2026-04-27 17:49 14.38401 78.68693 35509 ft 444 kts 305°
2026-04-27 17:50 14.40103 78.66020 35795 ft 443 kts 305°
2026-04-27 17:50 14.43442 78.60774 36305 ft 442 kts 305°
2026-04-27 17:50 14.45140 78.58108 36502 ft 443 kts 305°
2026-04-27 17:51 14.46800 78.55499 36664 ft 444 kts 305°
2026-04-27 17:51 14.48495 78.52835 36825 ft 445 kts 305°
2026-04-27 17:51 14.50192 78.50168 36986 ft 446 kts 305°
2026-04-27 17:51 14.51864 78.47540 37139 ft 447 kts 305°
2026-04-27 17:52 14.53567 78.44859 37289 ft 448 kts 305°
2026-04-27 17:52 14.55277 78.42170 37432 ft 449 kts 305°
2026-04-27 17:52 14.56971 78.39503 37571 ft 450 kts 305°
2026-04-27 17:52 14.58100 78.37725 37663 ft 450 kts 305°
2026-04-27 17:53 14.60382 78.34132 37841 ft 451 kts 305°
2026-04-27 17:53 14.62015 78.31559 37952 ft 452 kts 305°
2026-04-27 17:53 14.65469 78.26115 37980 ft 453 kts 305°
2026-04-27 17:54 14.68968 78.20593 37982 ft 453 kts 305°
2026-04-27 17:54 14.72462 78.15076 37982 ft 453 kts 305°
2026-04-27 17:55 14.76049 78.09409 37982 ft 453 kts 305°
2026-04-27 17:55 14.79486 78.03976 37982 ft 453 kts 305°
2026-04-27 17:56 14.82941 77.98509 37982 ft 453 kts 305°
2026-04-27 17:56 14.86592 77.92730 37982 ft 453 kts 305°
2026-04-27 17:57 14.90228 77.86970 37982 ft 453 kts 305°
2026-04-27 17:57 14.93774 77.81350 37982 ft 453 kts 304°
2026-04-27 17:58 14.97355 77.75670 37982 ft 452 kts 304°
2026-04-27 17:58 15.00755 77.70271 37982 ft 452 kts 304°
2026-04-27 17:59 15.04180 77.64831 37982 ft 451 kts 304°
2026-04-27 17:59 15.07654 77.59304 37982 ft 451 kts 304°
2026-04-27 18:00 15.11194 77.53670 37982 ft 451 kts 304°
2026-04-27 18:00 15.14636 77.48190 37982 ft 451 kts 304°
2026-04-27 18:01 15.18113 77.42651 37982 ft 451 kts 304°
2026-04-27 18:01 15.21785 77.36795 37982 ft 451 kts 304°
2026-04-27 18:02 15.25483 77.30894 37973 ft 451 kts 304°
2026-04-27 18:02 15.29008 77.25264 37956 ft 451 kts 304°
2026-04-27 18:03 15.32601 77.19520 37940 ft 451 kts 304°
2026-04-27 18:03 15.36263 77.13660 37933 ft 451 kts 304°
2026-04-27 18:04 15.39755 77.08092 37935 ft 451 kts 305°
2026-04-27 18:04 15.43525 77.02835 37939 ft 450 kts 309°
2026-04-27 18:05 15.45677 77.00001 37937 ft 451 kts 309°
2026-04-27 18:05 15.48804 76.95886 37930 ft 451 kts 309°
2026-04-27 18:06 15.52681 76.90771 37912 ft 452 kts 309°
2026-04-27 18:06 15.56550 76.85656 37895 ft 452 kts 310°
2026-04-27 18:07 15.60332 76.80650 37884 ft 453 kts 310°
2026-04-27 18:07 15.64234 76.75480 37879 ft 454 kts 310°
2026-04-27 18:08 15.68104 76.70350 37876 ft 454 kts 310°
2026-04-27 18:08 15.72018 76.65163 37874 ft 454 kts 310°
2026-04-27 18:09 15.75899 76.60018 37874 ft 454 kts 310°
2026-04-27 18:09 15.79764 76.54888 37874 ft 454 kts 310°
2026-04-27 18:10 15.83656 76.49717 37872 ft 454 kts 310°
2026-04-27 18:10 15.87529 76.44568 37866 ft 453 kts 310°
2026-04-27 18:11 15.91423 76.39385 37860 ft 454 kts 310°
2026-04-27 18:11 15.95271 76.34261 37858 ft 454 kts 309°
2026-04-27 18:12 15.99162 76.29077 37865 ft 454 kts 309°
2026-04-27 18:12 16.03015 76.23939 37869 ft 454 kts 309°
2026-04-27 18:13 16.06898 76.18757 37871 ft 454 kts 309°
2026-04-27 18:13 16.10763 76.13596 37872 ft 454 kts 309°
2026-04-27 18:14 16.14623 76.08438 37872 ft 454 kts 309°
2026-04-27 18:14 16.18513 76.03235 37872 ft 454 kts 309°
2026-04-27 18:15 16.22368 75.98077 37872 ft 454 kts 309°
2026-04-27 18:15 16.26231 75.92902 37872 ft 454 kts 309°
2026-04-27 18:16 16.30102 75.87714 37872 ft 454 kts 309°
2026-04-27 18:16 16.33958 75.82543 37872 ft 454 kts 309°
2026-04-27 18:17 16.37805 75.77381 37872 ft 453 kts 309°
2026-04-27 18:17 16.41694 75.72158 37872 ft 453 kts 309°
2026-04-27 18:18 16.45521 75.67014 37872 ft 453 kts 309°
2026-04-27 18:18 16.49474 75.61696 37872 ft 453 kts 309°
2026-04-27 18:19 16.53428 75.56369 37872 ft 453 kts 309°
2026-04-27 18:19 16.57292 75.51160 37872 ft 453 kts 309°
2026-04-27 18:20 16.61247 75.45832 37872 ft 453 kts 310°
2026-04-27 18:20 16.65448 75.40284 37872 ft 453 kts 310°
2026-04-27 18:21 16.69436 75.35027 37871 ft 453 kts 310°
2026-04-27 18:21 16.73422 75.29758 37865 ft 453 kts 310°
2026-04-27 18:22 16.77470 75.24400 37858 ft 453 kts 310°
2026-04-27 18:22 16.81484 75.19081 37852 ft 453 kts 310°
2026-04-27 18:23 16.85372 75.13925 37847 ft 453 kts 310°
2026-04-27 18:23 16.89560 75.08369 37846 ft 453 kts 309°
2026-04-27 18:24 16.93773 75.02778 37840 ft 453 kts 309°
2026-04-27 18:24 16.97931 74.97253 37831 ft 452 kts 309°
2026-04-27 18:25 17.02032 74.91798 37823 ft 453 kts 308°
2026-04-27 18:25 17.06076 74.86410 37819 ft 454 kts 308°
2026-04-27 18:26 17.10387 74.80664 37820 ft 456 kts 308°
2026-04-27 18:26 17.14723 74.74881 37822 ft 458 kts 308°
2026-04-27 18:27 17.19020 74.69144 37818 ft 458 kts 308°
2026-04-27 18:27 17.23269 74.63467 37809 ft 458 kts 308°
2026-04-27 18:28 17.27475 74.57843 37799 ft 458 kts 308°
2026-04-27 18:28 17.31603 74.52316 37794 ft 458 kts 308°
2026-04-27 18:29 17.35879 74.46589 37791 ft 458 kts 308°
2026-04-27 18:29 17.40084 74.40950 37791 ft 458 kts 308°
2026-04-27 18:30 17.44009 74.35684 37791 ft 458 kts 308°
2026-04-27 18:30 17.46013 74.33003 37640 ft 459 kts 308°
2026-04-27 18:30 17.48196 74.30085 37361 ft 456 kts 308°
2026-04-27 18:31 17.49649 74.28144 37174 ft 454 kts 308°
2026-04-27 18:31 17.52431 74.24423 36815 ft 450 kts 308°
2026-04-27 18:31 17.54542 74.21596 36540 ft 447 kts 308°
2026-04-27 18:31 17.56574 74.18874 36275 ft 447 kts 308°
2026-04-27 18:32 17.58547 74.16228 36018 ft 447 kts 308°
2026-04-27 18:32 17.60610 74.13462 35731 ft 447 kts 308°
2026-04-27 18:32 17.62686 74.10677 35303 ft 448 kts 308°
2026-04-27 18:32 17.64810 74.07825 34702 ft 450 kts 308°
2026-04-27 18:33 17.66893 74.05027 34017 ft 451 kts 308°
2026-04-27 18:33 17.69044 74.02137 33266 ft 453 kts 308°
2026-04-27 18:33 17.71142 73.99315 32521 ft 454 kts 308°
2026-04-27 18:33 17.73198 73.96550 31832 ft 454 kts 308°
2026-04-27 18:34 17.75121 73.93961 31390 ft 449 kts 308°
2026-04-27 18:34 17.77064 73.91348 30941 ft 444 kts 308°
2026-04-27 18:34 17.78936 73.88823 30501 ft 439 kts 308°
2026-04-27 18:34 17.80803 73.86305 30057 ft 434 kts 308°
2026-04-27 18:35 17.82832 73.83565 29569 ft 430 kts 308°
2026-04-27 18:35 17.84855 73.80831 29081 ft 425 kts 308°
2026-04-27 18:35 17.86791 73.78214 28613 ft 420 kts 308°
2026-04-27 18:35 17.88595 73.75775 28173 ft 416 kts 308°
2026-04-27 18:36 17.90476 73.73231 27711 ft 412 kts 308°
2026-04-27 18:36 17.92319 73.70735 27255 ft 408 kts 308°
2026-04-27 18:36 17.94165 73.68237 26797 ft 403 kts 308°
2026-04-27 18:36 17.95957 73.65810 26348 ft 399 kts 308°
2026-04-27 18:37 17.97813 73.63294 25880 ft 396 kts 308°
2026-04-27 18:37 17.99514 73.60989 25451 ft 392 kts 308°
2026-04-27 18:37 18.01178 73.58733 25028 ft 389 kts 308°
2026-04-27 18:37 18.02839 73.56480 24602 ft 386 kts 308°
2026-04-27 18:38 18.04481 73.54252 24179 ft 383 kts 308°
2026-04-27 18:38 18.06101 73.52052 23759 ft 380 kts 308°
2026-04-27 18:38 18.07699 73.49882 23342 ft 378 kts 308°
2026-04-27 18:38 18.09291 73.47719 22924 ft 375 kts 308°
2026-04-27 18:39 18.10899 73.45534 22498 ft 373 kts 308°
2026-04-27 18:39 18.12474 73.43393 22083 ft 370 kts 308°
2026-04-27 18:39 18.14043 73.41260 21895 ft 360 kts 308°
2026-04-27 18:39 18.15879 73.39099 21742 ft 346 kts 319°
2026-04-27 18:40 18.18002 73.37418 21386 ft 342 kts 331°
2026-04-27 18:40 18.20347 73.36074 20922 ft 340 kts 334°
2026-04-27 18:40 18.22693 73.34820 20484 ft 338 kts 334°
2026-04-27 18:40 18.24785 73.33701 20098 ft 335 kts 334°
2026-04-27 18:41 18.26837 73.32595 19720 ft 333 kts 334°
2026-04-27 18:41 18.28875 73.31488 19342 ft 331 kts 334°
2026-04-27 18:41 18.30923 73.30370 18960 ft 329 kts 334°
2026-04-27 18:41 18.32961 73.29256 18579 ft 327 kts 334°
2026-04-27 18:42 18.34987 73.28145 18199 ft 325 kts 334°
2026-04-27 18:42 18.35663 73.27774 18072 ft 325 kts 334°
2026-04-27 18:42 18.39008 73.25937 17441 ft 322 kts 334°
2026-04-27 18:42 18.41009 73.24837 17061 ft 320 kts 334°
2026-04-27 18:43 18.42977 73.23756 16687 ft 319 kts 334°
2026-04-27 18:43 18.44989 73.22649 16301 ft 317 kts 334°
2026-04-27 18:43 18.47058 73.21511 15903 ft 315 kts 333°
2026-04-27 18:43 18.49005 73.20440 15530 ft 314 kts 333°
2026-04-27 18:44 18.50954 73.19367 15154 ft 313 kts 333°
2026-04-27 18:44 18.52908 73.18291 14775 ft 311 kts 333°
2026-04-27 18:44 18.54844 73.17226 14396 ft 310 kts 333°
2026-04-27 18:44 18.56765 73.16167 14019 ft 309 kts 333°
2026-04-27 18:45 18.58684 73.15110 13643 ft 307 kts 333°
2026-04-27 18:45 18.60579 73.14066 13269 ft 305 kts 333°
2026-04-27 18:45 18.62456 73.13030 12900 ft 304 kts 333°
2026-04-27 18:45 18.64320 73.12002 12531 ft 302 kts 333°
2026-04-27 18:46 18.66201 73.10964 12158 ft 300 kts 333°
2026-04-27 18:46 18.68030 73.09955 11793 ft 299 kts 333°
2026-04-27 18:46 18.69854 73.08948 11426 ft 297 kts 333°
2026-04-27 18:46 18.71664 73.07949 11059 ft 295 kts 333°
2026-04-27 18:47 18.73477 73.06947 10690 ft 294 kts 333°
2026-04-27 18:47 18.75301 73.05940 10317 ft 292 kts 333°
2026-04-27 18:47 18.77081 73.04956 9954 ft 291 kts 333°
2026-04-27 18:47 18.78887 73.03958 9587 ft 289 kts 333°
2026-04-27 18:48 18.80647 73.02985 9228 ft 288 kts 333°
2026-04-27 18:48 18.82443 73.01993 8862 ft 287 kts 333°
2026-04-27 18:48 18.84320 73.01007 8465 ft 286 kts 341°
2026-04-27 18:48 18.85620 73.00707 8167 ft 285 kts 358°
2026-04-27 18:49 18.88222 73.01426 7599 ft 282 kts 34°
2026-04-27 18:49 18.89630 73.02824 7265 ft 277 kts 55°
2026-04-27 18:49 18.90755 73.04666 6894 ft 274 kts 58°
2026-04-27 18:49 18.91861 73.06306 6544 ft 273 kts 52°
2026-04-27 18:50 18.93226 73.07881 6176 ft 270 kts 44°
2026-04-27 18:50 18.94629 73.09161 5837 ft 264 kts 38°
2026-04-27 18:50 18.96137 73.10275 5501 ft 261 kts 32°
2026-04-27 18:50 18.97712 73.11227 5172 ft 258 kts 27°
2026-04-27 18:51 18.99334 73.12024 4847 ft 250 kts 22°
2026-04-27 18:51 19.01030 73.12691 4520 ft 247 kts 18°
2026-04-27 18:51 19.02153 73.13049 4306 ft 246 kts 15°
2026-04-27 18:51 19.04392 73.13579 3907 ft 243 kts
2026-04-27 18:52 19.06036 73.13525 3788 ft 231 kts 342°
2026-04-27 18:52 19.07430 73.12714 3790 ft 228 kts 316°
2026-04-27 18:52 19.08372 73.11362 3796 ft 228 kts 297°
2026-04-27 18:53 19.09151 73.08134 3795 ft 228 kts 273°
2026-04-27 18:53 19.09176 73.06477 3786 ft 218 kts 270°
2026-04-27 18:53 19.09147 73.04887 3788 ft 213 kts 269°
2026-04-27 18:53 19.09113 73.03315 3791 ft 213 kts 269°
2026-04-27 18:54 19.09083 73.01738 3792 ft 213 kts 269°
2026-04-27 18:54 19.09052 73.00153 3792 ft 213 kts 266°
2026-04-27 18:54 19.08598 72.98664 3775 ft 214 kts 233°
2026-04-27 18:54 19.07430 72.97716 3785 ft 217 kts 199°
2026-04-27 18:55 19.05837 72.97630 3797 ft 231 kts 165°
2026-04-27 18:55 19.04328 72.98289 3801 ft 234 kts 153°
2026-04-27 18:55 19.02904 72.99123 3797 ft 234 kts 150°
2026-04-27 18:55 19.01453 73.00066 3794 ft 232 kts 141°
2026-04-27 18:56 19.00512 73.01459 3786 ft 231 kts 108°
2026-04-27 18:56 19.00269 73.03208 3796 ft 232 kts 93°
2026-04-27 18:56 19.00251 73.04984 3795 ft 232 kts 90°
2026-04-27 18:56 19.00272 73.06798 3794 ft 232 kts 90°
2026-04-27 18:57 19.00301 73.08605 3731 ft 228 kts 90°
2026-04-27 18:57 19.00331 73.10409 3387 ft 229 kts 90°
2026-04-27 18:57 19.00359 73.12101 3068 ft 230 kts 90°
2026-04-27 18:57 19.00377 73.13219 2873 ft 229 kts 90°
2026-04-27 18:58 19.00412 73.15461 2484 ft 228 kts 90°
2026-04-27 18:58 19.00428 73.16565 2293 ft 228 kts 90°
2026-04-27 18:58 19.00461 73.18802 2003 ft 225 kts 89°
2026-04-27 18:58 19.00486 73.19910 1997 ft 227 kts 85°
2026-04-27 18:59 19.01296 73.21903 1987 ft 228 kts 43°
2026-04-27 18:59 19.02658 73.22701 1990 ft 228 kts 10°
2026-04-27 18:59 19.03710 73.22732 1991 ft 227 kts 348°
2026-04-27 18:59 19.05480 73.21561 1991 ft 224 kts 302°
2026-04-27 19:00 19.06089 73.20011 1999 ft 223 kts 284°
2026-04-27 19:00 19.06443 73.18361 1996 ft 223 kts 280°
2026-04-27 19:00 19.06741 73.16748 1984 ft 210 kts 280°
2026-04-27 19:00 19.07011 73.15250 1989 ft 208 kts 279°
2026-04-27 19:01 19.07279 73.13734 1994 ft 207 kts 280°
2026-04-27 19:01 19.07536 73.12216 1993 ft 206 kts 280°
2026-04-27 19:01 19.07803 73.10621 1993 ft 206 kts 280°
2026-04-27 19:01 19.08066 73.09038 1993 ft 206 kts 280°
2026-04-27 19:02 19.08317 73.07533 1993 ft 206 kts 280°
2026-04-27 19:02 19.08673 73.05969 2018 ft 202 kts 284°
2026-04-27 19:02 19.08952 73.04499 2045 ft 181 kts 277°
2026-04-27 19:02 19.09052 73.03204 1988 ft 162 kts 272°
2026-04-27 19:03 19.09080 73.02048 1968 ft 150 kts 270°
2026-04-27 19:03 19.09080 73.01285 2010 ft 150 kts 270°
2026-04-27 19:03 19.09064 72.99771 2000 ft 150 kts 269°
2026-04-27 19:03 19.09053 72.99035 1997 ft 150 kts 269°
2026-04-27 19:04 19.09029 72.97540 1858 ft 150 kts 269°
2026-04-27 19:04 19.09011 72.96426 1659 ft 146 kts 269°
2026-04-27 19:04 19.08995 72.95353 1460 ft 142 kts 269°
2026-04-27 19:04 19.08979 72.94302 1275 ft 141 kts 269°
2026-04-27 19:05 19.08964 72.93242 1088 ft 141 kts 269°
2026-04-27 19:05 19.08947 72.92134 889 ft 140 kts 269°
2026-04-27 19:05 19.08935 72.91069 694 ft 140 kts 270°
2026-04-27 19:05 19.08935 72.90032 504 ft 140 kts 269°
2026-04-27 19:06 19.08918 72.89006 291 ft 139 kts 268°
2026-04-27 19:06 19.08901 72.88335 176 ft 138 kts 268°
2026-04-27 19:06 19.08873 72.86958 30 ft 131 kts 269°
2026-04-27 19:06 19.08861 72.86150 32 ft 81 kts 270°
2026-04-27 19:07 19.08855 72.85738 27 ft 29 kts 270°
2026-04-27 19:07 19.08854 72.85549 26 ft 27 kts 272°
2026-04-27 19:07 19.08886 72.85371 26 ft 22 kts 295°
2026-04-27 19:07 19.08938 72.85266 26 ft 10 kts 301°
2026-04-27 19:08 19.08979 72.85236 26 ft 10 kts
2026-04-27 19:08 19.09021 72.85307 28 ft 8 kts 89°
2026-04-27 19:08 19.09022 72.85346 29 ft 8 kts 89°
2026-04-27 19:08 19.09023 72.85429 29 ft 8 kts 89°
2026-04-27 19:09 19.09024 72.85498 29 ft 9 kts 89°
2026-04-27 19:09 19.09025 72.85572 29 ft 10 kts 89°
2026-04-27 19:09 19.09026 72.85652 29 ft 10 kts 89°
2026-04-27 19:09 19.09027 72.85732 30 ft 11 kts 89°
2026-04-27 19:10 19.09029 72.85818 30 ft 11 kts 89°
2026-04-27 19:10 19.09030 72.85903 31 ft 10 kts 89°
2026-04-27 19:10 19.09030 72.85954 32 ft 9 kts 89°
2026-04-27 19:10 19.09032 72.86002 32 ft 10 kts 88°
2026-04-27 19:11 19.09034 72.86133 32 ft 11 kts 89°
2026-04-27 19:11 19.09034 72.86188 32 ft 11 kts 89°
2026-04-27 19:11 19.09035 72.86275 32 ft 11 kts 89°
2026-04-27 19:11 19.09037 72.86397 32 ft 11 kts 88°
2026-04-27 19:12 19.09039 72.86480 32 ft 10 kts 90°
2026-04-27 19:12 19.09040 72.86562 32 ft 10 kts 88°
2026-04-27 19:12 19.09041 72.86614 32 ft 10 kts 89°
2026-04-27 19:12 19.09042 72.86713 32 ft 9 kts 89°
2026-04-27 19:13 19.09060 72.86781 32 ft 8 kts 52°
2026-04-27 19:13 19.09105 72.86829 32 ft 8 kts 49°
2026-04-27 19:13 19.09129 72.86886 31 ft 8 kts 81°
2026-04-27 19:13 19.09133 72.86948 31 ft 8 kts 88°
2026-04-27 19:14 19.09134 72.86987 31 ft 7 kts 90°
2026-04-27 19:14 19.09135 72.87059 31 ft 7 kts 89°
2026-04-27 19:14 19.09135 72.87110 31 ft 6 kts 90°
2026-04-27 19:14 19.09135 72.87158 31 ft 5 kts 89°
2026-04-27 19:15 19.09135 72.87202 31 ft 5 kts 94°
2026-04-27 19:15 19.09125 72.87239 31 ft 5 kts 121°
2026-04-27 19:15 19.09094 72.87261 30 ft 5 kts 155°
2026-04-27 19:15 19.09062 72.87290 30 ft 6 kts 122°
2026-04-27 19:16 19.09053 72.87336 29 ft 6 kts 89°
2026-04-27 19:16 19.09053 72.87352 29 ft 6 kts 89°
2026-04-27 19:16 19.09054 72.87410 30 ft 5 kts 89°
2026-04-27 19:16 19.09077 72.87446 30 ft 3 kts 27°
2026-04-27 19:17 19.09089 72.87451 30 ft 2 kts 18°
2026-04-27 19:17 19.09112 72.87460 31 ft 2 kts 26°
2026-04-27 19:17 19.09121 72.87466 31 ft 1 kts 37°
2026-04-27 19:17 19.09126 72.87470 31 ft 1 kts 45°
2026-04-27 19:18 19.09139 72.87492 31 ft 5 kts 64°
2026-04-27 19:18 19.09147 72.87547 32 ft 9 kts 88°
2026-04-27 19:18 19.09153 72.87633 32 ft 14 kts 72°
2026-04-27 19:18 19.09249 72.87682 33 ft 14 kts 25°
2026-04-27 19:19 19.09311 72.87711 35 ft 13 kts 27°
2026-04-27 19:19 19.09413 72.87772 36 ft 11 kts 30°
2026-04-27 19:19 19.09456 72.87798 37 ft 9 kts 31°
2026-04-27 19:19 19.09519 72.87837 38 ft 6 kts 27°
2026-04-27 19:20 19.09566 72.87855 38 ft 7 kts 10°
2026-04-27 19:20 19.09607 72.87837 38 ft 5 kts 319°
2026-04-27 19:20 19.09631 72.87809 39 ft 4 kts 309°
2026-04-27 19:20 19.09644 72.87790 39 ft 2 kts 296°
2026-04-27 19:21 19.09645 72.87782 39 ft 1 kts 266°
2026-04-27 19:21 19.09644 72.87778 39 ft 0 kts 251°
2026-04-27 19:21 19.09642 72.87774 39 ft 0 kts 232°
2026-04-27 19:21 19.09637 72.87769 40 ft 1 kts 231°
2026-04-27 19:22 19.09634 72.87764 40 ft 1 kts 231°
2026-04-27 19:22 19.09623 72.87750 40 ft 2 kts 231°
2026-04-27 19:22 19.09614 72.87737 40 ft 2 kts 231°
2026-04-27 19:22 19.09601 72.87721 40 ft 3 kts 231°
2026-04-27 19:23 19.09587 72.87702 40 ft 0 kts 232°